Regional Weather Roundup
Issued by NWS

Home | Current Version | Previous Version | Text Only | Print | Product List | Glossary On
Versions: 1 2 3 4 5 6 7 8 9 10 11 12 13 14 15 16 17 18 19 20 21 22 23 24 25 26 27 28 29 30 31 32 33 34 35 36 37 38 39 40 41 42 43 44 45 46 47 48 49 50
000
ASUS44 KLUB 141101
RWRTX
WEST TEXAS WEATHER ROUNDUP
NATIONAL WEATHER SERVICE LUBBOCK TX
600 AM CDT MON JUL 14 2014

NOTE: "FAIR" INDICATES FEW OR NO CLOUDS BELOW 12,000 FEET WITH NO
SIGNIFICANT WEATHER AND/OR OBSTRUCTIONS TO VISIBILITY.

TXZ004-006>008-010-012-014-016-OKZ002-141200-
TEXAS PANHANDLE/OKLAHOMA PANHANDLE

CITY           SKY/WX    TMP DP  RH WIND       PRES   REMARKS
AMARILLO       MOCLDY    68  63  84 W6        30.15F
BORGER         MOCLDY    70  67  90 W3        30.12S
CANADIAN       MOCLDY    71  70  97 CALM      30.07S
DALHART        MOCLDY    68  62  81 W7        30.19R
DUMAS          PTCLDY    65  61  87 CALM      30.16S
GUYMON         PTCLDY    67  65  93 N3        30.11S
HEREFORD       PTCLDY    66  65  97 NW3       30.17F
PERRYTON       PTCLDY    66  63  89 SW3       30.11R
$$

TXZ026-029-035-045-048-141200-
SOUTHERN PANHANDLE/SOUTH PLAINS/ROLLING PLAINS

CITY           SKY/WX    TMP DP  RH WIND       PRES   REMARKS
CHILDRESS      MOCLDY    75  66  73 N9        30.05R
SEMINOLE       CLEAR     69  56  63 SW3       30.14S
LUBBOCK        PTCLDY    72  56  57 W3        30.13R
SNYDER         CLEAR     72  57  59 S6        30.09S
$$

TXZ052-054-060>062-072-078-127-140-154-169-141200-
PERMIAN BASIN/CONCHO VALLEY/BIG COUNTRY/EDWARDS PLATEAU

CITY           SKY/WX    TMP DP  RH WIND       PRES   REMARKS
ABILENE        CLEAR     76  58  53 S6        30.05S
BIG SPRING     CLEAR     74  58  56 S6        30.13R
BRADY          CLEAR     73  63  68 S6        30.07R
BROWNWOOD      PTCLDY    68  59  73 S3        30.05S
JUNCTION       CLEAR     75  65  70 W3        30.08R
MIDLAND        CLEAR     71  57  61 CALM      30.11S
ODESSA         CLEAR     74  59  59 S6        30.13R
SAN ANGELO     CLEAR     72  60  66 SW6       30.07R
SWEETWATER     CLEAR     77  58  52 SW10      30.11R
WINK           CLEAR     72  58  61 E7        30.08R
$$

TXZ055-058-074-075-080-082-141200-
FAR WEST/SOUTHWEST MOUNTAINS/TRANS PECOS

CITY           SKY/WX    TMP DP  RH WIND       PRES   REMARKS
ALPINE         CLEAR     68  55  62 S3        30.24S
DRYDEN           N/A     74  61  63 NE6       30.06R
EL PASO        PTCLDY    76  56  49 N15       30.12R
FORT STOCKTON  CLEAR     73  58  59 S10       30.10R
GUADALUPE PASS PTCLDY    69  55  60 NE14        N/A
MARFA          CLEAR     61  55  82 N3        30.23S
PECOS          CLEAR     70  60  69 E5        30.07R
PRESIDIO       FAIR      80  58  47 N7        30.07S
$$

TXZ014-016-019-021>030-083-141200
TEXAS TECH WEST TEXAS MESONET/TEXAS PANHANDLE/NORTHERN SOUTH PLAINS

CITY           SKY/WX    TMP DP  RH WIND       PRES   REMARKS
ABERNATHY 5ENE   N/A     71  60  67 SE2       30.14S
AMARILLO 9NNE    N/A     67  67  98 CALM      30.13F
AMARILLO 7SSE    N/A     64  63  95 W6        30.16S
AMHERST 1NE      N/A     71  60  69 SW3       30.15F
BOOTLEG 11WNW    N/A     63  59  86 N5        30.22S
CANADIAN 6E      N/A     70  68  95 N7        30.06S
CAPROCK CYN SP   N/A     73  62  68 SW7       30.08F
CHILDRESS 2NNE   N/A     74  66  76 S1        30.03S
CLARENDON 2WSW   N/A     69  65  87 N6        30.09S
CLAUDE 12SW      N/A     69  63  81 W3        30.13F
DIMMITT 2NE      N/A     67  63  88 NE3       30.17S
FLOYDADA 2NNE    N/A     67  61  80 S2        30.12S
FRIONA 2NE       N/A     66  62  86 NE5       30.19S
GOODLETT 3W      N/A     73  64  74 W2        30.01R
HART 3N          N/A     70  63  78 E2        30.16S
HEREFORD 2NW     N/A     65  61  87 N6        30.18S
MCLEAN 1E        N/A     69  67  92 W7        30.07S
MEMPHIS 1NE      N/A     73  67  83 SW2       30.05S
MULESHOE 2SSW    N/A     68  59  74 E1        30.16R
OLTON 6S         N/A     70  59  69 SW1       30.15R
PALO DURO SP     N/A     70  63  78 W5        30.16S
PAMPA 2E         N/A     68  65  89 W3        30.11S
PLAINVIEW 1S     N/A     71  63  75 CALM      30.14R
SILVERTON 7ESE   N/A     65  61  86 SW7       30.12S
TULIA 2ENE       N/A     70  63  79 S5        30.15R
TURKEY 2WSW      N/A     73  64  73 SW8       30.06F
UMBARGER 3NNE    N/A     65  64  97 W5        30.18S
$$

TXZ033>036-039>041-045>048-141200
TEXAS TECH WEST TEXAS MESONET/SOUTH PLAINS

CITY           SKY/WX    TMP DP  RH WIND       PRES   REMARKS
AIKEN 3WSW       N/A     70  63  79 SW1       30.14S
ANDREWS 2NE      N/A     71  55  56 S6        30.13S
ANTON 6SSW       N/A     68  57  68 W5        30.14S
BROWNFIELD 2S    N/A     69  57  65 SW7       30.13R
DENVR CTY 7WNW   N/A     68  55  63 W7        30.16S
GAIL 2ESE        N/A     73  56  56 SW6       30.09S
LAMESA 2SE       N/A     65  59  80 S5        30.12F
LEVELLAND 4S     N/A     70  55  59 W6        30.15S
LUBBOCK 3WNW     N/A     72  55  54 W5        30.14R
ODONNELL 1N      N/A     69  57  65 S5        30.12S
PLAINS 3N        N/A     67  56  67 W6        30.17S
RALLS 1SE        N/A     70  62  75 SE2       30.13S
REESE CENTER     N/A     70  56  61 W7        30.14R
SEAGRAVES 1SW    N/A     68  56  66 W5        30.14R
SEMINOLE 2NNE    N/A     73  57  55 S8        30.13S
SLATON 2NE       N/A     73  56  56 SW9       30.11S
SNYDER 3E        N/A     73  57  57 S7        30.08S
SUNDOWN 8SW      N/A     65  56  73 W6        30.16S
TAHOKA 3NNE      N/A     71  56  60 SW8       30.11S
WOLFFORTH 6SSW   N/A     71  56  59 W8        30.14R
$$

TXZ031-032-036>038-042>044-141200-
TEXAS TECH WEST TEXAS MESONET/ROLLING PLAINS

CITY           SKY/WX    TMP DP  RH WIND       PRES   REMARKS
ASPERMONT 3NE    N/A     76  55  49 NW3       30.04R
FLUVANNA 3WNW    N/A     73  55  52 SW6       30.10S
GRAHAM 5SSW      N/A     75  56  52 SW8       30.10S
GUTHRIE 10WSW    N/A     74  62  66 SW1       30.04S
HASKELL 1NW      N/A     75  55  48 SW5       30.02R
JAYTON 1SSE      N/A     73  56  55 NW5       30.06R
KNOX CITY 3NW    N/A     76  54  46 SW7       30.02S
LK A HENRY 1NW   N/A     78  57  48 SW9       30.06S
NORTHFIELD 1S    N/A     72  65  78 W5        30.05R
ODELL 4ENE       N/A     76  67  73 E2        29.99S
PADUCAH 10SW     N/A     74  65  73 CALM      30.04S
POST 1NE         N/A     77  55  47 SW9       30.08S
RRING SPRGS 3N   N/A     70  64  82 W5        30.08S
SEYMOUR 3NW      N/A     78  57  48 S5        29.99S
SPUR 1W          N/A     73  62  66 SW1       30.07S
WEINERT 2NNE     N/A     77  57  49 SW6       30.02S
WHITE RVR 6NE    N/A     74  61  63 W3        30.10R
$$

TXZ052-054-060>062-072-078-127-140-154-169-141200-
TEXAS TECH WEST TEXAS MESONET/PERMIAN BASIN/
CONCHO VALLEY/BIG COUNTRY/EDWARDS PLATEAU

CITY           SKY/WX    TMP DP  RH WIND       PRES   REMARKS
COYANOSA 2N      N/A     69  57  63 E6        30.07F
JUNCTION 1SSW    N/A     70  62  75 CALM      30.09R
MERTZON 3NNE     N/A     74  62  66 S7        30.09S
SAN ANGELO 7NW   N/A     68  55  63 N3        30.08R
STRLNG CT 4WSW   N/A     68  58  70 CALM      30.10S
ST LAWRNCE 5SW   N/A     66  54  66 SE6       30.10S
SWEETWATR 11SW   N/A     73  59  61 S6        30.10S
WALL 1E          N/A     72  58  62 S2        30.07S
$$

TXZ055-058-074-075-080-082-141200-
TEXAS TECH WEST TEXAS MESONET/FAR WEST/SOUTHWEST MOUNTAINS/TRANS PECOS

CITY           SKY/WX    TMP DP  RH WIND       PRES   REMARKS
PRSMN GAP BBNP   N/A     77  58  51 NE8       30.09R
$$



USA.gov is the U.S. government's official web portal to all federal, state and local government web resources and services.